, NM

(GMT )
Holloman AFB

Weather History for KHMN - April, 2014

Change the Weather History Date:

Sunday, April 6, 2014

  Actual Average Record
Temperature  
Mean Temperature 53 °F -  
Max Temperature 67 °F 70 °F 84 °F (2011)
Min Temperature 39 °F 41 °F 30 °F (2009)
Degree Days  
Heating Degree Days 12    
Growing Degree Days 3 (Base 50)    
Moisture  
Dew Point 19 °F    
Average Humidity 25    
Maximum Humidity 45    
Minimum Humidity 14    
Precipitation  
Precipitation 0.00 in - - ()
Sea Level Pressure  
Sea Level Pressure 29.78 in    
Wind  
Wind Speed 8 mph (NW)    
Max Wind Speed 17 mph    
Max Gust Speed 22 mph    
Visibility 10 miles    
Events      
Averages and records for this station are not official NWS values.
T = Trace of Precipitation, MM = Missing Value Source: NWS Daily Summary

Daily Weather History Graph

Daily Weather History Graph

Search for Another Location

Airport or City:

Trip Planner

Search our weather history database for the weather conditions in past years. The results will help you decide how hot, cold, wet, or windy it might be!

Date:

Astronomy

Apr. 06, 2014 Rise Set
Actual Time 6:45 AM MDT 7:28 PM MDT
Civil Twilight 6:20 AM MDT 7:53 PM MDT
Nautical Twilight 5:51 AM MDT 8:22 PM MDT
Astronomical Twilight 5:21 AM MDT 8:52 PM MDT
Moon 11:59 AM MDT (4/6) 1:16 AM MDT (4/6)
Length of Visible Light 13h 32m
Length of Day
12h 42m
Waxing Crescent, 44% of the Moon is Illuminated
Apr 6
Waxing Crescent
Apr 7
First Quarter
Apr 15
Full
Apr 22
Last Quarter
Apr 29
New

Hourly Weather History & Observations

Time (MDT) Temp. Windchill Dew Point Humidity Pressure Visibility Wind Dir Wind Speed Gust Speed Precip Events Conditions
12:58 AM 44.6 °F 40.7 °F 21.2 °F 39% 29.75 in 10.0 mi NNE 6.9 mph - N/A   Clear
1:58 AM 41.0 °F 35.8 °F 19.4 °F 42% 29.75 in 10.0 mi NNW 8.1 mph - N/A   Clear
2:58 AM 39.2 °F 34.2 °F 17.6 °F 42% 29.75 in 10.0 mi NNW 6.9 mph - N/A   Clear
3:58 AM 39.2 °F 35.9 °F 17.6 °F 42% 29.75 in 10.0 mi North 4.6 mph - N/A   Mostly Cloudy
4:58 AM 42.8 °F - 17.6 °F 36% 29.75 in 10.0 mi NNE 2.3 mph - N/A   Clear
5:58 AM 42.8 °F - 19.4 °F 39% 29.77 in 10.0 mi ESE 2.3 mph - N/A   Clear
6:58 AM 39.2 °F 37.0 °F 19.4 °F 45% 29.78 in 10.0 mi North 3.5 mph - N/A   Clear
7:58 AM 44.6 °F 42.2 °F 21.2 °F 39% 29.79 in 10.0 mi NNE 4.6 mph - N/A   Clear
8:58 AM 55.4 °F - 23.0 °F 29% 29.79 in 10.0 mi WNW 6.9 mph - N/A   Clear
9:58 AM 57.2 °F - 23.0 °F 27% 29.79 in 10.0 mi NNW 9.2 mph - N/A   Clear
10:58 AM 60.1 °F - 21.4 °F 23% 29.79 in 10.0 mi West 8.1 mph 16.1 mph N/A   Clear
11:12 AM 60.8 °F - 21.2 °F 22% 29.91 in 10.0 mi NNW 13.8 mph - N/A   Clear
11:16 AM 60.8 °F - 21.2 °F 22% 29.91 in 10.0 mi West 12.7 mph 19.6 mph N/A   Clear
11:58 AM 62.1 °F - 21.9 °F 21% 29.78 in 10.0 mi WNW 13.8 mph 19.6 mph N/A   Clear
12:58 PM 64.2 °F - 20.3 °F 19% 29.76 in 10.0 mi WNW 9.2 mph 19.6 mph N/A   Clear
1:38 PM 64.4 °F - 19.4 °F 18% 29.86 in 10.0 mi WNW 13.8 mph - N/A   Clear
1:54 PM 66.2 °F - 19.4 °F 17% 29.86 in 10.0 mi West 12.7 mph 17.3 mph N/A   Clear
1:58 PM 65.3 °F - 18.9 °F 17% 29.74 in 10.0 mi West 11.5 mph 17.3 mph N/A   Clear
2:25 PM 66.2 °F - 17.6 °F 15% 29.84 in 10.0 mi NW 15.0 mph 19.6 mph N/A   Clear
2:32 PM 66.2 °F - 17.6 °F 15% 29.85 in 10.0 mi West 15.0 mph 19.6 mph N/A   Clear
2:58 PM 66.4 °F - 17.8 °F 16% 29.73 in 10.0 mi WNW 10.4 mph - N/A   Clear
3:34 PM 66.2 °F - 17.6 °F 15% 29.82 in 10.0 mi West 16.1 mph 21.9 mph N/A   Clear
3:58 PM 66.9 °F - 16.9 °F 15% 29.71 in 10.0 mi West 16.1 mph 21.9 mph N/A   Clear
4:58 PM 67.6 °F - 17.1 °F 14% 29.70 in 10.0 mi West 12.7 mph 19.6 mph N/A   Clear
5:58 PM 65.8 °F - 17.2 °F 15% 29.69 in 10.0 mi WNW 10.4 mph - N/A   Clear
6:24 PM 66.2 °F - 17.6 °F 15% 29.81 in 10.0 mi NW 17.3 mph - N/A   Clear
6:58 PM 65.5 °F - 17.1 °F 16% 29.71 in 10.0 mi NW 10.4 mph - N/A   Clear
7:58 PM 62.1 °F - 18.3 °F 18% 29.72 in 10.0 mi NNW 10.4 mph - N/A   Clear
8:58 PM 56.7 °F - 17.4 °F 22% 29.75 in 10.0 mi North 10.4 mph - N/A   Clear
9:58 PM 55.6 °F - 18.5 °F 23% 29.78 in 10.0 mi NW 4.6 mph - N/A   Partly Cloudy
10:58 PM 55.4 °F - 18.5 °F 24% 29.77 in 10.0 mi WNW 2.3 mph - N/A   Clear
11:58 PM 49.8 °F - 16.5 °F 27% 29.79 in 10.0 mi North 5.8 mph - N/A   Partly Cloudy